Time,TemperatureF,DewpointF,PressureIn,WindDirection,WindDirectionDegrees,WindSpeedMPH,WindSpeedGustMPH,Humidity,HourlyPrecipIn,Conditions,Clouds,dailyrainin,SoftwareType,DateUTC
2013-05-11 00:00:00,72.3,71.1,29.97,NW,315,0.0,0.0,96,0.00,,---,0.00,VWS V14.01,2013-05-11 04:00:00,
2013-05-11 00:10:00,72.0,70.8,29.97,NW,315,0.0,0.0,96,0.00,,---,0.00,VWS V14.01,2013-05-11 04:10:00,
2013-05-11 00:20:00,72.0,70.8,29.98,NW,315,0.0,0.0,96,0.00,,---,0.00,VWS V14.01,2013-05-11 04:20:00,
2013-05-11 00:30:00,71.8,70.6,29.97,NW,315,0.0,0.0,96,0.00,,---,0.00,VWS V14.01,2013-05-11 04:30:00,
2013-05-11 00:40:00,71.6,70.4,29.97,NW,315,0.0,0.0,96,0.00,,---,0.00,VWS V14.01,2013-05-11 04:40:00,
2013-05-11 00:50:00,71.3,70.1,29.97,NW,315,0.0,0.0,96,0.00,,---,0.00,VWS V14.01,2013-05-11 04:50:00,
2013-05-11 01:00:00,71.1,69.9,29.96,NW,315,0.0,0.0,96,0.00,,---,0.00,VWS V14.01,2013-05-11 05:00:00,
2013-05-11 01:10:00,70.9,69.7,29.96,NW,315,0.0,0.0,96,0.00,,---,0.00,VWS V14.01,2013-05-11 05:10:00,
2013-05-11 01:20:00,70.8,69.6,29.97,NW,315,0.0,0.0,96,0.00,,---,0.00,VWS V14.01,2013-05-11 05:20:00,
2013-05-11 01:30:00,70.6,69.4,29.96,NW,315,0.0,0.0,96,0.00,,---,0.00,VWS V14.01,2013-05-11 05:30:00,
2013-05-11 01:40:00,70.4,69.2,29.96,NW,315,0.0,0.0,96,0.00,,---,0.00,VWS V14.01,2013-05-11 05:40:00,
2013-05-11 01:50:00,70.3,69.1,29.96,NW,315,0.0,0.0,96,0.00,,---,0.00,VWS V14.01,2013-05-11 05:50:00,
2013-05-11 02:00:00,70.4,69.2,29.95,NW,315,0.0,0.0,96,0.00,,---,0.00,VWS V14.01,2013-05-11 06:00:00,
2013-05-11 02:10:00,70.4,69.2,29.95,NW,315,0.0,0.0,96,0.00,,---,0.00,VWS V14.01,2013-05-11 06:10:00,
2013-05-11 02:20:00,70.3,69.1,29.95,NW,315,0.0,0.0,96,0.00,,---,0.00,VWS V14.01,2013-05-11 06:20:00,
2013-05-11 02:30:00,70.1,68.9,29.95,NW,315,0.0,0.0,96,0.00,,---,0.00,VWS V14.01,2013-05-11 06:30:00,
2013-05-11 02:40:00,70.1,68.9,29.95,NW,315,0.0,0.0,96,0.00,,---,0.00,VWS V14.01,2013-05-11 06:40:00,
2013-05-11 02:50:00,70.1,68.9,29.95,NW,315,0.0,0.0,96,0.00,,---,0.00,VWS V14.01,2013-05-11 06:50:00,
2013-05-11 03:00:00,70.3,69.1,29.95,NW,315,0.0,0.0,96,0.00,,---,0.00,VWS V14.01,2013-05-11 07:00:00,
2013-05-11 03:10:00,70.3,69.1,29.95,NW,315,0.0,0.0,96,0.00,,---,0.00,VWS V14.01,2013-05-11 07:10:00,
2013-05-11 03:20:00,69.9,68.7,29.94,NW,315,0.0,0.0,96,0.00,,---,0.00,VWS V14.01,2013-05-11 07:20:00,
2013-05-11 03:30:00,69.8,68.6,29.94,NW,315,0.0,0.0,96,0.00,,---,0.00,VWS V14.01,2013-05-11 07:30:00,
2013-05-11 03:40:00,69.8,68.6,29.94,NW,315,0.0,0.0,96,0.00,,---,0.00,VWS V14.01,2013-05-11 07:40:00,
2013-05-11 03:50:00,69.9,68.7,29.92,NW,315,0.0,0.0,96,0.00,,---,0.00,VWS V14.01,2013-05-11 07:50:00,
2013-05-11 04:00:00,70.1,68.9,29.92,NW,315,0.0,0.0,96,0.00,,---,0.00,VWS V14.01,2013-05-11 08:00:00,
2013-05-11 04:10:00,70.3,69.1,29.92,NW,315,0.0,0.0,96,0.00,,---,0.00,VWS V14.01,2013-05-11 08:10:00,
2013-05-11 04:20:00,70.6,69.4,29.91,NW,315,0.0,0.0,96,0.00,,---,0.00,VWS V14.01,2013-05-11 08:20:00,
2013-05-11 04:30:00,71.1,69.9,29.91,ENE,68,0.0,2.0,96,0.00,,---,0.00,VWS V14.01,2013-05-11 08:30:00,
2013-05-11 04:40:00,71.1,69.9,29.91,ENE,68,0.0,0.0,96,0.00,,---,0.00,VWS V14.01,2013-05-11 08:40:00,
2013-05-11 04:50:00,71.1,69.9,29.92,ENE,68,0.0,0.0,96,0.00,,---,0.00,VWS V14.01,2013-05-11 08:50:00,
2013-05-11 05:00:00,71.1,69.9,29.92,ENE,68,0.0,0.0,96,0.00,,---,0.00,VWS V14.01,2013-05-11 09:00:00,
2013-05-11 05:10:00,71.1,69.9,29.92,ENE,68,0.0,0.0,96,0.00,,---,0.00,VWS V14.01,2013-05-11 09:10:00,
2013-05-11 05:20:00,70.9,69.7,29.92,ENE,68,0.0,0.0,96,0.00,,---,0.00,VWS V14.01,2013-05-11 09:20:00,
2013-05-11 05:30:00,70.9,69.7,29.92,ENE,68,0.0,0.0,96,0.00,,---,0.00,VWS V14.01,2013-05-11 09:30:00,
2013-05-11 05:40:00,70.8,69.6,29.92,ENE,68,0.0,0.0,96,0.00,,---,0.00,VWS V14.01,2013-05-11 09:40:00,
2013-05-11 05:50:00,70.9,69.7,29.93,ENE,68,0.0,0.0,96,0.00,,---,0.00,VWS V14.01,2013-05-11 09:50:00,
2013-05-11 06:00:00,70.9,69.7,29.93,ENE,68,0.0,0.0,96,0.00,,---,0.00,VWS V14.01,2013-05-11 10:00:00,
2013-05-11 06:10:00,71.1,69.9,29.93,ENE,68,0.0,0.0,96,0.00,,---,0.00,VWS V14.01,2013-05-11 10:10:00,
2013-05-11 06:20:00,70.9,69.7,29.93,ENE,68,0.0,0.0,96,0.00,,---,0.00,VWS V14.01,2013-05-11 10:20:00,
2013-05-11 06:30:00,70.9,69.7,29.93,ENE,68,0.0,0.0,96,0.00,,---,0.00,VWS V14.01,2013-05-11 10:30:00,
2013-05-11 06:40:00,71.1,69.9,29.93,ENE,68,0.0,0.0,96,0.00,,---,0.00,VWS V14.01,2013-05-11 10:40:00,
2013-05-11 06:50:00,70.8,69.6,29.94,ENE,68,0.0,0.0,96,0.00,,---,0.00,VWS V14.01,2013-05-11 10:50:00,
2013-05-11 07:00:00,70.6,69.4,29.94,ENE,68,0.0,0.0,96,0.00,,---,0.00,VWS V14.01,2013-05-11 11:00:00,
2013-05-11 07:10:00,70.4,69.2,29.94,ENE,68,0.0,0.0,96,0.00,,---,0.00,VWS V14.01,2013-05-11 11:10:00,
2013-05-11 07:20:00,70.6,69.4,29.94,ENE,68,0.0,0.0,96,0.00,,---,0.00,VWS V14.01,2013-05-11 11:20:00,
2013-05-11 07:30:00,70.6,69.4,29.94,ENE,68,0.0,0.0,96,0.00,,---,0.00,VWS V14.01,2013-05-11 11:30:00,
2013-05-11 07:40:00,70.8,69.6,29.94,ENE,68,0.0,0.0,96,0.00,,---,0.00,VWS V14.01,2013-05-11 11:40:00,
2013-05-11 07:50:00,70.9,69.7,29.95,ENE,68,0.0,0.0,96,0.00,,---,0.00,VWS V14.01,2013-05-11 11:50:00,
2013-05-11 08:00:00,71.6,70.4,29.95,ENE,68,0.0,0.0,96,0.00,,---,0.00,VWS V14.01,2013-05-11 12:00:00,
2013-05-11 08:10:00,72.3,71.1,29.95,ESE,112,0.0,2.0,96,0.00,,---,0.00,VWS V14.01,2013-05-11 12:10:00,
2013-05-11 08:20:00,73.3,72.1,29.95,ESE,112,0.0,0.0,96,0.00,,---,0.00,VWS V14.01,2013-05-11 12:20:00,
2013-05-11 08:30:00,74.0,72.8,29.95,SE,135,0.0,1.0,96,0.00,,---,0.00,VWS V14.01,2013-05-11 12:30:00,
2013-05-11 08:40:00,74.6,73.4,29.95,SE,135,0.0,2.0,96,0.00,,---,0.00,VWS V14.01,2013-05-11 12:40:00,
2013-05-11 08:50:00,75.3,74.1,29.95,SE,135,0.0,3.0,96,0.00,,---,0.00,VWS V14.01,2013-05-11 12:50:00,
2013-05-11 09:00:00,76.3,75.1,29.95,SE,135,0.0,0.0,96,0.00,,---,0.00,VWS V14.01,2013-05-11 13:00:00,
2013-05-11 09:10:00,76.8,75.6,29.95,SE,135,0.0,0.0,96,0.00,,---,0.00,VWS V14.01,2013-05-11 13:10:00,
2013-05-11 09:20:00,77.6,76.4,29.95,SE,135,0.0,5.0,96,0.00,,---,0.00,VWS V14.01,2013-05-11 13:20:00,
2013-05-11 09:30:00,77.7,76.5,29.96,SE,135,0.0,4.0,96,0.00,,---,0.00,VWS V14.01,2013-05-11 13:30:00,
2013-05-11 09:40:00,78.5,77.3,29.96,SE,135,0.0,4.0,96,0.00,,---,0.00,VWS V14.01,2013-05-11 13:40:00,
2013-05-11 09:50:00,78.8,77.6,29.96,SSE,158,0.0,5.0,96,0.00,,---,0.00,VWS V14.01,2013-05-11 13:50:00,
2013-05-11 10:00:00,79.4,78.2,29.96,SSE,158,1.0,6.0,96,0.00,,---,0.00,VWS V14.01,2013-05-11 14:00:00,
2013-05-11 10:10:00,79.6,78.4,29.96,SSE,158,1.0,6.0,96,0.00,,---,0.00,VWS V14.01,2013-05-11 14:10:00,
2013-05-11 10:20:00,80.3,79.1,29.96,SSE,158,1.0,5.0,96,0.00,,---,0.00,VWS V14.01,2013-05-11 14:20:00,
2013-05-11 10:30:00,81.1,79.9,29.95,SSE,158,1.0,6.0,96,0.00,,---,0.00,VWS V14.01,2013-05-11 14:30:00,
2013-05-11 10:40:00,81.8,79.9,29.95,WSW,248,2.0,8.0,94,0.00,,---,0.00,VWS V14.01,2013-05-11 14:40:00,
2013-05-11 10:50:00,82.4,79.8,29.96,WSW,248,2.0,7.0,92,0.00,,---,0.00,VWS V14.01,2013-05-11 14:50:00,
2013-05-11 11:00:00,82.6,80.7,29.95,WSW,248,2.0,6.0,94,0.00,,---,0.00,VWS V14.01,2013-05-11 15:00:00,
2013-05-11 11:10:00,83.4,78.1,29.95,WSW,248,2.0,8.0,84,0.00,,---,0.00,VWS V14.01,2013-05-11 15:10:00,
2013-05-11 11:20:00,83.8,78.8,29.95,NW,315,3.0,10.0,85,0.00,,---,0.00,VWS V14.01,2013-05-11 15:20:00,
2013-05-11 11:30:00,83.8,78.4,29.95,West,270,2.0,7.0,84,0.00,,---,0.00,VWS V14.01,2013-05-11 15:30:00,
2013-05-11 11:40:00,84.0,77.9,29.95,WSW,248,2.0,9.0,82,0.00,,---,0.00,VWS V14.01,2013-05-11 15:40:00,
2013-05-11 11:50:00,84.0,78.3,29.95,WNW,292,1.0,7.0,83,0.00,,---,0.00,VWS V14.01,2013-05-11 15:50:00,
2013-05-11 12:00:00,84.1,78.0,29.95,WSW,248,2.0,6.0,82,0.00,,---,0.00,VWS V14.01,2013-05-11 16:00:00,
2013-05-11 12:10:00,84.7,78.2,29.95,West,270,1.0,8.0,81,0.00,,---,0.00,VWS V14.01,2013-05-11 16:10:00,
2013-05-11 12:20:00,84.7,77.8,29.94,SW,225,3.0,8.0,80,0.00,,---,0.00,VWS V14.01,2013-05-11 16:20:00,
2013-05-11 12:30:00,85.7,77.7,29.94,WSW,248,4.0,12.0,77,0.00,,---,0.00,VWS V14.01,2013-05-11 16:30:00,
2013-05-11 12:40:00,85.7,78.8,29.94,West,270,3.0,7.0,80,0.00,,---,0.00,VWS V14.01,2013-05-11 16:40:00,
2013-05-11 12:50:00,85.9,77.5,29.94,NW,315,4.0,11.0,76,0.00,,---,0.00,VWS V14.01,2013-05-11 16:50:00,
2013-05-11 13:00:00,85.7,77.7,29.94,NW,315,6.0,14.0,77,0.00,,---,0.00,VWS V14.01,2013-05-11 17:00:00,
2013-05-11 13:10:00,86.3,76.2,29.94,West,270,5.0,11.0,72,0.00,,---,0.00,VWS V14.01,2013-05-11 17:10:00,
2013-05-11 13:20:00,87.2,75.4,29.93,SW,225,4.0,11.0,68,0.00,,---,0.00,VWS V14.01,2013-05-11 17:20:00,
2013-05-11 13:30:00,87.2,75.8,29.93,West,270,5.0,10.0,69,0.00,,---,0.00,VWS V14.01,2013-05-11 17:30:00,
2013-05-11 13:40:00,87.2,74.9,29.93,West,270,5.0,11.0,67,0.00,,---,0.00,VWS V14.01,2013-05-11 17:40:00,
2013-05-11 13:50:00,87.6,74.4,29.93,WSW,248,4.0,12.0,65,0.00,,---,0.00,VWS V14.01,2013-05-11 17:50:00,
2013-05-11 14:00:00,88.0,75.2,29.93,WSW,248,4.0,10.0,66,0.00,,---,0.00,VWS V14.01,2013-05-11 18:00:00,
2013-05-11 14:10:00,88.0,75.2,29.93,West,270,4.0,11.0,66,0.00,,---,0.00,VWS V14.01,2013-05-11 18:10:00,
2013-05-11 14:20:00,87.4,75.1,29.93,West,270,5.0,11.0,67,0.00,,---,0.00,VWS V14.01,2013-05-11 18:20:00,
2013-05-11 14:30:00,87.8,75.0,29.92,WNW,292,4.0,14.0,66,0.00,,---,0.00,VWS V14.01,2013-05-11 18:30:00,
2013-05-11 14:40:00,87.4,75.1,29.92,West,270,5.0,10.0,67,0.00,,---,0.00,VWS V14.01,2013-05-11 18:40:00,
2013-05-11 14:50:00,87.4,76.0,29.92,WNW,292,6.0,13.0,69,0.01,,---,0.01,VWS V14.01,2013-05-11 18:50:00,
2013-05-11 15:00:00,87.2,74.0,29.92,West,270,5.0,11.0,65,0.01,,---,0.01,VWS V14.01,2013-05-11 19:00:00,
2013-05-11 15:10:00,87.6,76.2,29.92,West,270,4.0,10.0,69,0.01,,---,0.01,VWS V14.01,2013-05-11 19:10:00,
2013-05-11 15:20:00,87.0,75.2,29.92,West,270,6.0,12.0,68,0.01,,---,0.01,VWS V14.01,2013-05-11 19:20:00,
2013-05-11 15:30:00,87.0,77.3,29.92,WNW,292,5.0,11.0,73,0.01,,---,0.01,VWS V14.01,2013-05-11 19:30:00,
2013-05-11 15:40:00,87.0,76.5,29.92,NW,315,5.0,16.0,71,0.01,,---,0.01,VWS V14.01,2013-05-11 19:40:00,
2013-05-11 15:50:00,86.1,76.4,29.91,WNW,292,7.0,17.0,73,0.01,,---,0.01,VWS V14.01,2013-05-11 19:50:00,
2013-05-11 16:00:00,85.9,78.2,29.91,WNW,292,7.0,14.0,78,0.00,,---,0.01,VWS V14.01,2013-05-11 20:00:00,
2013-05-11 16:10:00,85.5,77.5,29.91,WNW,292,6.0,12.0,77,0.00,,---,0.01,VWS V14.01,2013-05-11 20:10:00,
2013-05-11 16:20:00,85.1,77.9,29.91,NW,315,6.0,14.0,79,0.00,,---,0.01,VWS V14.01,2013-05-11 20:20:00,
2013-05-11 16:30:00,84.7,78.6,29.91,NW,315,7.0,16.0,82,0.00,,---,0.01,VWS V14.01,2013-05-11 20:30:00,
2013-05-11 16:40:00,84.5,78.0,29.91,WNW,292,6.0,14.0,81,0.00,,---,0.01,VWS V14.01,2013-05-11 20:40:00,
2013-05-11 16:50:00,84.0,78.7,29.91,WNW,292,5.0,14.0,84,0.00,,---,0.01,VWS V14.01,2013-05-11 20:50:00,
2013-05-11 17:00:00,83.6,78.6,29.91,West,270,5.0,10.0,85,0.00,,---,0.01,VWS V14.01,2013-05-11 21:00:00,
2013-05-11 17:10:00,83.6,79.3,29.91,West,270,5.0,11.0,87,0.00,,---,0.01,VWS V14.01,2013-05-11 21:10:00,
2013-05-11 17:20:00,84.1,79.1,29.91,West,270,5.0,12.0,85,0.00,,---,0.01,VWS V14.01,2013-05-11 21:20:00,
2013-05-11 17:30:00,84.0,79.4,29.92,WNW,292,5.0,11.0,86,0.00,,---,0.01,VWS V14.01,2013-05-11 21:30:00,
2013-05-11 17:40:00,84.1,78.8,29.92,NW,315,5.0,16.0,84,0.00,,---,0.01,VWS V14.01,2013-05-11 21:40:00,
2013-05-11 17:50:00,83.4,78.4,29.91,WNW,292,7.0,13.0,85,0.00,,---,0.01,VWS V14.01,2013-05-11 21:50:00,
2013-05-11 18:00:00,83.4,79.1,29.90,NW,315,5.0,12.0,87,0.00,,---,0.01,VWS V14.01,2013-05-11 22:00:00,
2013-05-11 18:10:00,83.0,78.7,29.90,West,270,4.0,13.0,87,0.00,,---,0.01,VWS V14.01,2013-05-11 22:10:00,
2013-05-11 18:20:00,83.2,79.6,29.90,WNW,292,4.0,13.0,89,0.00,,---,0.01,VWS V14.01,2013-05-11 22:20:00,
2013-05-11 18:30:00,82.6,79.7,29.90,NW,315,4.0,12.0,91,0.00,,---,0.01,VWS V14.01,2013-05-11 22:30:00,
2013-05-11 18:40:00,82.0,79.8,29.90,NW,315,4.0,11.0,93,0.00,,---,0.01,VWS V14.01,2013-05-11 22:40:00,
2013-05-11 18:50:00,83.4,78.4,29.91,WNW,292,7.0,13.0,85,0.00,,---,0.01,VWS V14.01,2013-05-11 22:50:00,
2013-05-11 19:00:00,83.4,79.1,29.90,NW,315,5.0,12.0,87,0.00,,---,0.01,VWS V14.01,2013-05-11 23:00:00,
2013-05-11 19:01:00,82.0,79.8,29.90,NW,315,4.0,11.0,93,0.00,,---,0.01,VWS V14.01,2013-05-11 23:01:00,
2013-05-11 19:06:00,81.1,79.9,29.91,WNW,287,0.0,8.0,96,0.02,,---,0.01,VWS V14.01,2013-05-11 23:06:00,
2013-05-11 19:10:00,80.9,79.7,29.91,WNW,301,1.0,8.0,96,0.02,,---,0.01,VWS V14.01,2013-05-11 23:10:00,
2013-05-11 19:11:00,80.9,79.7,29.91,NW,318,1.0,2.0,96,0.02,,---,0.01,VWS V14.01,2013-05-11 23:11:00,
2013-05-11 19:16:00,80.7,79.5,29.90,NW,308,1.0,7.0,96,0.02,,---,0.01,VWS V14.01,2013-05-11 23:16:00,
2013-05-11 19:20:00,80.9,79.7,29.90,West,280,3.0,7.0,96,0.02,,---,0.01,VWS V14.01,2013-05-11 23:20:00,
2013-05-11 19:21:00,80.9,79.7,29.90,WNW,294,2.0,3.0,96,0.02,,---,0.01,VWS V14.01,2013-05-11 23:21:00,
2013-05-11 19:26:00,80.9,79.7,29.90,NW,312,3.0,7.0,96,0.02,,---,0.01,VWS V14.01,2013-05-11 23:26:00,
2013-05-11 19:30:00,80.7,79.5,29.91,NNW,328,0.0,8.0,96,0.02,,---,0.01,VWS V14.01,2013-05-11 23:30:00,
2013-05-11 19:31:00,80.7,79.5,29.91,WSW,253,3.0,4.0,96,0.02,,---,0.01,VWS V14.01,2013-05-11 23:31:00,
2013-05-11 19:36:00,80.5,79.3,29.91,NNW,328,5.0,5.0,96,0.02,,---,0.01,VWS V14.01,2013-05-11 23:36:00,
2013-05-11 19:40:00,80.5,79.3,29.91,NW,306,4.0,5.0,96,0.02,,---,0.01,VWS V14.01,2013-05-11 23:40:00,
2013-05-11 19:41:00,80.3,79.1,29.91,NW,311,0.0,5.0,96,0.02,,---,0.01,VWS V14.01,2013-05-11 23:41:00,
2013-05-11 19:46:00,80.1,78.9,29.92,WNW,298,0.0,5.0,96,0.02,,---,0.01,VWS V14.01,2013-05-11 23:46:00,
2013-05-11 19:50:00,80.1,78.9,29.92,NW,308,0.0,5.0,96,0.02,,---,0.01,VWS V14.01,2013-05-11 23:50:00,
2013-05-11 19:51:00,79.9,78.7,29.92,NW,308,0.0,0.0,96,0.00,,---,0.01,VWS V14.01,2013-05-11 23:51:00,
2013-05-11 19:56:00,79.9,78.7,29.92,NW,305,0.0,1.0,96,0.00,,---,0.01,VWS V14.01,2013-05-11 23:56:00,
2013-05-11 20:00:00,79.8,78.6,29.92,NW,306,0.0,1.0,96,0.00,,---,0.01,VWS V14.01,2013-05-12 00:00:00,
2013-05-11 20:01:00,79.8,78.6,29.92,NW,306,0.0,0.0,96,0.00,,---,0.01,VWS V14.01,2013-05-12 00:01:00,
2013-05-11 20:06:00,79.6,78.4,29.92,NW,309,0.0,1.0,96,0.00,,---,0.01,VWS V14.01,2013-05-12 00:06:00,
2013-05-11 20:10:00,79.4,78.2,29.92,NW,309,0.0,1.0,96,0.00,,---,0.01,VWS V14.01,2013-05-12 00:10:00,
2013-05-11 20:11:00,79.4,78.2,29.92,NW,311,0.0,4.0,96,0.00,,---,0.01,VWS V14.01,2013-05-12 00:11:00,
2013-05-11 20:16:00,79.2,78.0,29.92,NW,309,0.0,4.0,96,0.00,,---,0.01,VWS V14.01,2013-05-12 00:16:00,
2013-05-11 20:20:00,79.2,78.0,29.92,NW,315,0.0,4.0,96,0.00,,---,0.01,VWS V14.01,2013-05-12 00:20:00,
2013-05-11 20:21:00,79.2,78.0,29.92,NW,318,0.0,3.0,96,0.00,,---,0.01,VWS V14.01,2013-05-12 00:21:00,
2013-05-11 20:26:00,79.0,77.8,29.92,NW,320,1.0,6.0,96,0.00,,---,0.01,VWS V14.01,2013-05-12 00:26:00,
2013-05-11 20:30:00,79.0,77.8,29.93,NNW,340,5.0,6.0,96,0.00,,---,0.01,VWS V14.01,2013-05-12 00:30:00,
2013-05-11 20:31:00,78.8,77.6,29.93,WNW,285,0.0,5.0,96,0.00,,---,0.01,VWS V14.01,2013-05-12 00:31:00,
2013-05-11 20:36:00,78.8,77.6,29.93,NW,312,0.0,6.0,96,0.00,,---,0.01,VWS V14.01,2013-05-12 00:36:00,
2013-05-11 20:40:00,78.8,77.6,29.93,NW,311,0.0,6.0,96,0.00,,---,0.01,VWS V14.01,2013-05-12 00:40:00,
2013-05-11 20:41:00,78.6,77.4,29.93,NW,311,0.0,0.0,96,0.00,,---,0.01,VWS V14.01,2013-05-12 00:41:00,
2013-05-11 20:46:00,78.6,77.4,29.93,NW,313,0.0,1.0,96,0.00,,---,0.01,VWS V14.01,2013-05-12 00:46:00,
2013-05-11 20:50:00,78.5,77.3,29.93,NW,311,0.0,3.0,96,0.00,,---,0.01,VWS V14.01,2013-05-12 00:50:00,
2013-05-11 20:51:00,78.5,77.3,29.93,NW,311,0.0,0.0,96,0.00,,---,0.01,VWS V14.01,2013-05-12 00:51:00,
2013-05-11 20:56:00,78.3,77.1,29.93,NNW,328,0.0,0.0,96,0.00,,---,0.01,VWS V14.01,2013-05-12 00:56:00,
2013-05-11 21:00:00,78.1,76.9,29.93,NNW,329,0.0,0.0,96,0.00,,---,0.01,VWS V14.01,2013-05-12 01:00:00,
2013-05-11 21:01:00,78.1,76.9,29.93,NW,316,0.0,0.0,96,0.00,,---,0.01,VWS V14.01,2013-05-12 01:01:00,
2013-05-11 21:06:00,78.1,76.9,29.93,NNW,332,0.0,0.0,96,0.00,,---,0.01,VWS V14.01,2013-05-12 01:06:00,
2013-05-11 21:10:00,77.9,76.7,29.93,NW,323,0.0,0.0,96,0.00,,---,0.01,VWS V14.01,2013-05-12 01:10:00,
2013-05-11 21:11:00,77.9,76.7,29.93,NW,319,0.0,0.0,96,0.00,,---,0.01,VWS V14.01,2013-05-12 01:11:00,
2013-05-11 21:16:00,77.7,76.5,29.93,NW,318,0.0,0.0,96,0.00,,---,0.01,VWS V14.01,2013-05-12 01:16:00,
2013-05-11 21:20:00,77.6,76.4,29.93,NW,318,0.0,0.0,96,0.00,,---,0.01,VWS V14.01,2013-05-12 01:20:00,
2013-05-11 21:21:00,77.6,76.4,29.93,NNW,330,0.0,0.0,96,0.00,,---,0.01,VWS V14.01,2013-05-12 01:21:00,
2013-05-11 21:26:00,77.4,76.2,29.93,NW,318,0.0,0.0,96,0.00,,---,0.01,VWS V14.01,2013-05-12 01:26:00,
2013-05-11 21:30:00,77.2,76.0,29.93,NW,322,0.0,0.0,96,0.00,,---,0.01,VWS V14.01,2013-05-12 01:30:00,
2013-05-11 21:31:00,77.2,76.0,29.93,NW,319,0.0,0.0,96,0.00,,---,0.01,VWS V14.01,2013-05-12 01:31:00,
2013-05-11 21:36:00,77.2,76.0,29.93,NW,316,0.0,0.0,96,0.00,,---,0.01,VWS V14.01,2013-05-12 01:36:00,
2013-05-11 21:40:00,77.0,75.8,29.93,NW,319,0.0,0.0,96,0.00,,---,0.01,VWS V14.01,2013-05-12 01:40:00,
2013-05-11 21:41:00,77.0,75.8,29.93,NW,318,0.0,0.0,96,0.00,,---,0.01,VWS V14.01,2013-05-12 01:41:00,
2013-05-11 21:46:00,76.8,75.6,29.93,NW,316,0.0,0.0,96,0.00,,---,0.01,VWS V14.01,2013-05-12 01:46:00,
2013-05-11 21:50:00,76.8,75.6,29.93,NW,319,0.0,0.0,96,0.00,,---,0.01,VWS V14.01,2013-05-12 01:50:00,
2013-05-11 21:51:00,76.7,75.5,29.93,NW,319,0.0,0.0,96,0.00,,---,0.01,VWS V14.01,2013-05-12 01:51:00,
2013-05-11 21:56:00,76.7,75.5,29.93,NNW,328,0.0,0.0,96,0.00,,---,0.01,VWS V14.01,2013-05-12 01:56:00,
2013-05-11 22:00:00,76.5,75.3,29.93,NW,318,0.0,0.0,96,0.00,,---,0.01,VWS V14.01,2013-05-12 02:00:00,
2013-05-11 22:01:00,76.5,75.3,29.93,NW,316,0.0,0.0,96,0.00,,---,0.01,VWS V14.01,2013-05-12 02:01:00,
2013-05-11 22:06:00,76.3,75.1,29.93,NW,316,0.0,0.0,96,0.00,,---,0.01,VWS V14.01,2013-05-12 02:06:00,
2013-05-11 22:10:00,76.0,74.8,29.93,NW,315,0.0,0.0,96,0.00,,---,0.01,VWS V14.01,2013-05-12 02:10:00,
2013-05-11 22:11:00,76.0,74.8,29.93,NW,316,0.0,0.0,96,0.00,,---,0.01,VWS V14.01,2013-05-12 02:11:00,
2013-05-11 22:16:00,75.4,74.2,29.94,ESE,104,0.0,0.0,96,0.00,,---,0.01,VWS V14.01,2013-05-12 02:16:00,
2013-05-11 22:20:00,75.3,74.1,29.94,East,100,0.0,0.0,96,0.00,,---,0.01,VWS V14.01,2013-05-12 02:20:00,
2013-05-11 22:21:00,75.3,74.1,29.94,East,100,0.0,0.0,96,0.00,,---,0.01,VWS V14.01,2013-05-12 02:21:00,
2013-05-11 22:26:00,75.1,73.9,29.94,ESE,109,0.0,0.0,96,0.00,,---,0.01,VWS V14.01,2013-05-12 02:26:00,
2013-05-11 22:30:00,75.1,73.9,29.94,East,100,0.0,0.0,96,0.00,,---,0.01,VWS V14.01,2013-05-12 02:30:00,
2013-05-11 22:31:00,74.9,73.7,29.94,ESE,110,0.0,0.0,96,0.00,,---,0.01,VWS V14.01,2013-05-12 02:31:00,
2013-05-11 22:36:00,74.9,73.7,29.94,East,97,0.0,0.0,96,0.00,,---,0.01,VWS V14.01,2013-05-12 02:36:00,
2013-05-11 22:40:00,74.7,73.5,29.94,ESE,106,0.0,0.0,96,0.00,,---,0.01,VWS V14.01,2013-05-12 02:40:00,
2013-05-11 22:41:00,74.7,73.5,29.94,ESE,102,0.0,0.0,96,0.00,,---,0.01,VWS V14.01,2013-05-12 02:41:00,
2013-05-11 22:46:00,74.6,73.4,29.94,ESE,102,0.0,0.0,96,0.00,,---,0.01,VWS V14.01,2013-05-12 02:46:00,
2013-05-11 22:50:00,74.4,73.2,29.94,East,95,0.0,0.0,96,0.00,,---,0.01,VWS V14.01,2013-05-12 02:50:00,
2013-05-11 22:51:00,74.4,73.2,29.94,East,97,0.0,0.0,96,0.00,,---,0.01,VWS V14.01,2013-05-12 02:51:00,
2013-05-11 22:56:00,74.2,73.0,29.94,East,99,0.0,0.0,96,0.00,,---,0.01,VWS V14.01,2013-05-12 02:56:00,
2013-05-11 23:00:00,74.2,73.0,29.94,East,99,0.0,0.0,96,0.00,,---,0.01,VWS V14.01,2013-05-12 03:00:00,
2013-05-11 23:01:00,74.2,73.0,29.94,East,100,0.0,0.0,96,0.00,,---,0.01,VWS V14.01,2013-05-12 03:01:00,
2013-05-11 23:06:00,74.0,72.8,29.94,East,96,0.0,0.0,96,0.00,,---,0.01,VWS V14.01,2013-05-12 03:06:00,
2013-05-11 23:10:00,73.9,72.7,29.94,East,95,0.0,0.0,96,0.00,,---,0.01,VWS V14.01,2013-05-12 03:10:00,
2013-05-11 23:11:00,73.9,72.7,29.94,East,100,0.0,0.0,96,0.00,,---,0.01,VWS V14.01,2013-05-12 03:11:00,
2013-05-11 23:16:00,73.7,72.5,29.94,ESE,113,0.0,0.0,96,0.00,,---,0.01,VWS V14.01,2013-05-12 03:16:00,
2013-05-11 23:20:00,73.5,72.3,29.94,East,95,0.0,0.0,96,0.00,,---,0.01,VWS V14.01,2013-05-12 03:20:00,
2013-05-11 23:21:00,73.5,72.3,29.94,East,97,0.0,0.0,96,0.00,,---,0.01,VWS V14.01,2013-05-12 03:21:00,
2013-05-11 23:26:00,73.3,72.1,29.94,East,100,0.0,0.0,96,0.00,,---,0.01,VWS V14.01,2013-05-12 03:26:00,
2013-05-11 23:30:00,73.2,72.0,29.95,East,99,0.0,0.0,96,0.00,,---,0.01,VWS V14.01,2013-05-12 03:30:00,
2013-05-11 23:31:00,73.2,72.0,29.95,ESE,106,0.0,0.0,96,0.00,,---,0.01,VWS V14.01,2013-05-12 03:31:00,
2013-05-11 23:36:00,73.0,71.8,29.95,East,97,0.0,0.0,96,0.00,,---,0.01,VWS V14.01,2013-05-12 03:36:00,
2013-05-11 23:40:00,73.0,71.8,29.95,East,99,0.0,0.0,96,0.00,,---,0.01,VWS V14.01,2013-05-12 03:40:00,
2013-05-11 23:41:00,72.8,71.6,29.95,ESE,102,0.0,0.0,96,0.00,,---,0.01,VWS V14.01,2013-05-12 03:41:00,
2013-05-11 23:46:00,72.7,71.5,29.94,East,99,0.0,0.0,96,0.00,,---,0.01,VWS V14.01,2013-05-12 03:46:00,
2013-05-11 23:50:00,72.7,71.5,29.94,ESE,102,0.0,0.0,96,0.00,,---,0.01,VWS V14.01,2013-05-12 03:50:00,
2013-05-11 23:51:00,72.7,71.5,29.94,East,99,0.0,0.0,96,0.00,,---,0.01,VWS V14.01,2013-05-12 03:51:00,
2013-05-11 23:56:00,72.5,71.3,29.94,East,97,0.0,0.0,96,0.00,,---,0.01,VWS V14.01,2013-05-12 03:56:00,